Location: *
(43.4667°N, 11.6833°E)
Time: 02:42:16
(UTC+00:00)

Cosmos 1782 - Pass Details

Date: 19 July 2019
Orbit: 537 x 553 km, 82.5° (Epoch: 19 August)

Event Time Altitude Azimuth Distance (km) Brightness Sun altitude
Rises 20:38:10 0° 3° (N) 2,737 7.2 -15.8°
Reaches altitude 10° 20:40:38 10° 16° (NNE) 1,835 6.0 -16.1°
Maximum altitude 20:44:03 26° 74° (ENE) 1,112 4.2 -16.5°
Enters shadow 20:44:59 24° 97° (E) 1,178 4.1 -16.6°
